User: anonymous   Login
Location: Bourg-d�Oueil
(42.8588°N, 0.4991°E)
Time: 02:44:42
(UTC+00:00)
Language:

Cosmos 2333 Rocket - Orbit

View from above orbital plane
View from above orbital plane
View from above satellite
View from above satellite

Ground track
Ground track

The orbit data is extracted from the following two-line orbital elements,

1 24298U 96051B   21260.64991299 -.00000192  00000-0 -77501-4 0  9994
2 24298  70.8268  26.4593 0014112  25.5077 334.6736 14.12417688291176
Epoch (UTC): 17 September 2021 15:35:52
Eccentricity: 0.0014112
inclination: 70.8268°
perigee height: 841 km
apogee height: 861 km
right ascension of ascending node: 26.4593°
argument of perigee: 25.5077°
revolutions per day: 14.12417688
mean anomaly at epoch: 334.6736°
orbit number at epoch: 29117

The dashed part of the orbit path shows where the satellite is in the earth's shadow,  

DLR